Showing default

R2, 46913

Orbit data source: Space-Track

R2, 46913 is a payload satellite owned by NanoAvionics (LT) in LEO that was launched on Sat, 07 Nov 2020 UTC via a PSLV-DL launch vehicle from the Sirharikota (SRI). Payload-class satellites include a variety of spacecraft equipped with specific instruments for various scientific and technological missions. These include communications satellites like Starlink; space stations such as the ISS; scientific satellites like the Hubble; Earth observation satellites from companies like Planet Labs, Umbra, and HawkEye 360; GPS; miniature CubeSats for education and research; and military/defense satellites.

Loading next visibility...
Identifier
46913, 2020-081J
Orbit
LEO
Last TLE update
8 hours ago
Origin
Manufacturer
NanoAvionics US
Mission
Operational Commercial Technology
Bus & Motor
CUBESAT 6U, Unknown motor
Mass
6.8 kg wet, 6.8 kg dry
Launch date (UTC)
2020-11-07 (5 years ago)
Launch vehicle
PSLV-DL
Launch site
Sirharikota (SRI)
Object type
Payload
Rocket body
Debris
Shape & HBR
Box, Unknown HBR
Radar Cross Section
0.080 m², Small (<0.1 m²)

Expand to show TLE details & history

TLE from 8 hours ago
0 R2
1 46913U 20081J   25186.61947469  .00004807  00000-0  23129-3 0  9991
2 46913  36.9011  25.4482 0008920 251.7331 108.2446 15.18608680259151
Epoch: 2025-07-05T14:52Z
TLE epoch observation values (Epoch: 2025-07-05T14:52:02.613Z)
Latitude
0.00004°
Longitude
-121.41755°
Altitude
511.083 km
Speed
7.609 km/s
True Right ascension
01h 41m 47s
True Declination
0° 00' 00"
Sunlit
Object was in daylight at epoch
Visualization orbit readout
Latitude
10.47364°
Longitude
-109.26848°
Altitude
511.74 km
Speed
7.609 km/s
Apparent Right ascension
00h 57m 54s
Apparent Declination
-15° 16' 47"
Sunlit
Object is in daylight
Visualization observer readout
Local Sidereal Time
10:46:18
Azimuth
301.221° NW
Elevation
-52.215°
Doppler factor
1
Orbital elements
Apogee altitude
519.133 km
Perigee altitude
506.839 km
Semi-major axis
6,891.123 km
Eccentricity
0.00089
Inclination
36.9011°
RAAN
25.4482°
Arg. of periapsis
251.7331°
True anomaly
Unknown
Mean anomaly
108.2446°
Eccentric anomaly
Unknown
Mean motion
3.79409 °/min
Orbital period
94.88 mins
BSTAR
0.00023129
Loading maneuver chart data...
Loading SW <> Apogee altitude chart data...
Loading historical data...
Loading historical data...
Loading historical data...
Loading historical data...
Loading historical data...
Loading historical data...
Loading historical data...

R2 Visibility forecast

Observer location: undefined°, undefined°

Span
Click to sort rows by Start time (UTC) header in descending order
Start Az.
Max El. time (UTC)
Max El. Az.
Max El.
End time (UTC)
End Az.
4 mins2025-07-06 16:20:02.774Z189.012° SSW2025-07-06 16:22:02.774Z153.962° SSE17.212°2025-07-06 16:24:02.774Z118.788° SE
6 mins2025-07-06 17:59:02.774Z233.264° WSW2025-07-06 18:02:02.774Z147.278° SSE33.613°2025-07-06 18:05:02.774Z97.682° ESE
6 mins2025-07-06 19:39:02.774Z253.698° W2025-07-06 19:41:02.774Z204.893° SW37.91°2025-07-06 19:45:02.774Z108.22° ESE
5 mins2025-07-06 21:19:02.774Z245.484° WSW2025-07-06 21:21:02.774Z200.136° SSW25.379°2025-07-06 21:24:02.774Z143.329° SSE
|